Flag for Jamaica Weather past 2 weeks in Montego Bay, Jamaica

Now
82 °F

Passing clouds.


Feels Like: 89 °F
Forecast: 78 / 90 °F
Wind: 2 mph from North

Location: Montego Bay / Sangster

Current Time: Aug 28, 2014 at 9:04:08 PM

Latest Report: Aug 28, 2014 at 8:00 PM


Visibility: N/A

Pressure: 29.92 "Hg

Humidity: 79%

Dew point: 75 °F

Location of Montego BayLocation

Historic Weather in Montego Bay — Graph

°F

Montego Bay temperature yesterday

Maximum temperature yesterday: 90 °F (at 10:00 AM)
Minimum temperature yesterday: 77 °F (at 3:00 PM)
Average temperature yesterday: 81 °F

Past Weeks' High & Low Weather Summary

 TemperatureHumidityPressure
High91 °F (Aug 14, 1:00 PM)100% (Aug 27, 10:00 PM)30.01 "Hg (Aug 27, 10:00 PM)
Low77 °F (Aug 14, 6:00 AM)55% (Aug 16, 3:00 AM)29.71 "Hg (Aug 24, 3:00 AM)
Average83 °F81%29.91 "Hg
* Reported Aug 13 8:00 PM — Aug 28 8:00 PM, Montego Bay, Weather by CustomWeather, © 2014

Note: Actual official high and low records may vary slightly from our data, if they occured in-between our weather recording intervals... More about our weather records

Advertising

Montego Bay weather history for previous 24 hours

 ConditionsComfort  
Time TempWeatherWind HumidityBarometerVisibility
8:00 PM
Aug 28
82 °FPassing clouds.2 mph79%29.92 "HgN/A
7:00 PM82 °FPassing clouds.7 mph84%29.89 "HgN/A
6:00 PM84 °FPassing clouds.5 mph79%29.89 "HgN/A
5:00 PM81 °FThundershowers. Scattered clouds.7 mph74%29.89 "HgN/A
4:00 PM86 °FScattered clouds.15 mph84%29.89 "HgN/A
3:00 PM88 °FScattered clouds.20 mph79%29.86 "HgN/A
2:00 PM88 °FPassing clouds.18 mph79%29.89 "HgN/A
1:00 PM90 °FPassing clouds.18 mph75%29.89 "HgN/A
12:00 PM88 °FPassing clouds.17 mph79%29.92 "HgN/A
11:00 AM88 °FPassing clouds.15 mph79%29.95 "HgN/A
10:00 AM86 °FScattered clouds.15 mph79%29.95 "HgN/A
9:00 AM86 °FPassing clouds.5 mph84%29.95 "HgN/A
8:00 AM82 °FPassing clouds.2 mph89%29.95 "HgN/A
7:00 AM81 °FPassing clouds.2 mph89%29.95 "HgN/A
6:00 AM79 °FPassing clouds.5 mph94%29.92 "HgN/A
5:00 AM79 °FPassing clouds.3 mph94%29.92 "HgN/A
4:00 AM77 °FPassing clouds.3 mph100%29.92 "HgN/A
3:00 AM77 °FPassing clouds.2 mph100%29.92 "HgN/A
2:00 AM79 °FPassing clouds.2 mph100%29.92 "HgN/A
1:00 AM79 °FPassing clouds.2 mph94%29.98 "HgN/A
12:00 AM79 °FPassing clouds.5 mph100%29.98 "HgN/A
11:00 PM
Aug 27
77 °FPassing clouds.3 mph100%29.98 "HgN/A
10:00 PM77 °FThundershowers. Passing clouds.2 mph100%29.98 "HgN/A
9:00 PM77 °FThundershowers. Passing clouds.3 mph94%29.98 "HgN/A
Weather by CustomWeather, © 2014

See weather overviewHow to use our weather pages